Location: Antioch Baptist Church
(32.6696°N, 85.7327°W)
Time: 19:37:28
(UTC+00:00)

Cosmos 2278 Rocket - Pass Details

Date: 14 July 2020
Orbit: 841 x 845 km, 71.0° (Epoch: 13 August)

Event Time Altitude Azimuth Distance (km) Brightness Sun altitude
Rises 01:56:23 0° 352° (N) 3,406 6.1 -12.4°
Reaches altitude 10° 01:59:14 10° 4° (N) 2,467 5.1 -12.9°
Maximum altitude 02:03:58 27° 62° (ENE) 1,568 3.4 -13.7°
Enters shadow 02:06:55 18° 105° (ESE) 1,962 3.6 -14.2°
